CW7283 Weather Reports


time (UTC)temp
C
wind
direction
speed
KPH
gust
KPH
rain 1hr
cm
rain 24hr
cm
rain mn
cm
humidity
%
barometer
mb
20260903234829 28 347 0.0 3.2 0.00 0.00 0.00 24 1008.8
20260903233355 28 327 0.0 3.2 0.00 0.00 0.00 25 1008.8
20260903231830 29 329 0.0 3.2 0.00 0.00 0.00 24 1008.8
20260903230332 30 80 0.0 3.2 0.00 0.00 0.00 24 1008.8
20260903224823 30 255 0.0 0.0 0.00 0.00 0.00 24 1008.8
20260903223339 30 194 0.0 3.2 0.00 0.00 0.00 24 1008.7
20260903221833 28 313 0.0 1.6 0.00 0.00 0.00 24 1008.7
20260903220352 29 261 0.0 3.2 0.00 0.00 0.00 25 1008.8
20260903214827 28 309 0.0 4.8 0.00 0.00 0.00 22 1008.8
20260903213337 30 330 0.0 3.2 0.00 0.00 0.00 24 1008.8
20260903211835 30 234 0.0 3.2 0.00 0.00 0.00 24 1008.8
20260903210338 30 63 0.0 3.2 0.00 0.00 0.00 23 1008.9
20260903204854 30 317 0.0 3.2 0.00 0.00 0.00 24 1008.9
20260903203340 28 221 0.0 3.2 0.00 0.00 0.00 24 1008.9
20260903201837 28 169 4.8 17.7 0.00 0.00 0.00 24 1009.2
20260903200330 28 71 0.0 6.4 0.00 0.00 0.00 26 1009.3
20260903194845 28 190 0.0 4.8 0.00 0.00 0.00 25 1009.4
20260903193357 27 313 0.0 4.8 0.00 0.00 0.00 27 1009.4
20260903191850 27 44 0.0 3.2 0.00 0.00 0.00 26 1009.5
20260903190338 28 51 0.0 1.6 0.00 0.00 0.00 27 1009.4
20260903184835 28 130 0.0 3.2 0.00 0.00 0.00 28 1009.5
20260903183347 27 17 0.0 3.2 0.00 0.00 0.00 26 1009.6
20260903181832 27 88 0.0 1.6 0.00 0.00 0.00 29 1009.7
20260903180345 27 79 0.0 3.2 0.00 0.00 0.00 29 1009.9
20260903174906 26 112 0.0 4.8 0.00 0.00 0.00 30 1010.1
20260903173341 26 55 0.0 3.2 0.00 0.00 0.00 32 1010.2
20260903171843 26 184 0.0 3.2 0.00 0.00 0.00 32 1010.3
20260903170338 25 191 0.0 6.4 0.00 0.00 0.00 33 1010.4
20260903164854 24 221 0.0 3.2 0.00 0.00 0.00 33 1010.4
20260903163337 23 15 0.0 3.2 0.00 0.00 0.00 40 1010.4
20260903161837 22 336 0.0 3.2 0.00 0.00 0.00 39 1010.5
20260903160333 22 294 0.0 3.2 0.00 0.00 0.00 42 1010.4
20260903154914 21 159 0.0 3.2 0.00 0.00 0.00 43 1010.6
20260903153353 19 142 0.0 3.2 0.00 0.00 0.00 45 1010.6
20260903151834 17 126 0.0 3.2 0.00 0.00 0.00 48 1010.6
20260903150334 16 131 0.0 3.2 0.00 0.00 0.00 52 1010.7
20260903144841 15 132 0.0 1.6 0.00 0.00 0.00 57 1010.7
20260903143351 14 136 0.0 3.2 0.00 0.00 0.00 59 1010.9
20260903141854 13 275 0.0 0.0 0.00 0.00 0.00 61 1011.0
20260903140331 13 275 0.0 0.0 0.00 0.00 0.00 63 1010.8
20260903134834 13 275 0.0 0.0 0.00 0.00 0.00 62 1010.8
20260903133328 13 147 0.0 0.0 0.00 0.00 0.00 60 1010.7
20260903131902 13 147 0.0 0.0 0.00 0.00 0.00 58 1010.5
20260903130353 13 255 0.0 0.0 0.00 0.00 0.00 56 1010.4
20260903124839 14 203 0.0 0.0 0.00 0.00 0.00 56 1010.6
20260903123331 14 203 0.0 0.0 0.00 0.00 0.00 56 1010.5
20260903121839 14 157 0.0 0.0 0.00 0.00 0.00 54 1010.3
20260903120409 14 259 0.0 3.2 0.00 0.00 0.00 54 1010.8
20260903114852 14 210 0.0 3.2 0.00 0.00 0.00 55 1011.0
20260903113339 15 194 0.0 1.6 0.00 0.00 0.00 55 1011.0
20260903111830 15 236 0.0 0.0 0.00 0.00 0.00 53 1010.6
20260903110343 15 236 0.0 0.0 0.00 0.00 0.00 51 1010.7
20260903104859 15 298 0.0 3.2 0.00 0.00 0.00 49 1010.7
20260903103352 15 304 0.0 0.0 0.00 0.00 0.00 48 1010.7
20260903101845 15 304 0.0 0.0 0.00 0.00 0.00 48 1010.4
20260903100337 16 336 0.0 0.0 0.00 0.00 0.00 47 1010.2
20260903094854 16 76 0.0 0.0 0.00 0.00 0.00 46 1010.0
20260903093329 17 347 0.0 0.0 0.00 0.00 0.00 45 1009.5
20260903091827 17 9 0.0 0.0 0.00 0.00 0.00 44 1009.5
20260903090343 17 295 0.0 3.2 0.00 0.00 0.00 43 1009.5
20260903084900 17 303 0.0 1.6 0.00 0.00 0.00 40 1009.7
20260903083343 17 315 0.0 0.0 0.00 0.00 0.00 40 1009.2
20260903081830 17 321 0.0 0.0 0.00 0.00 0.00 39 1008.9
20260903080345 18 277 0.0 0.0 0.00 0.00 0.00 40 1008.8
20260903074849 18 309 0.0 0.0 0.00 0.00 0.00 39 1008.8
20260903073401 18 38 0.0 3.2 0.00 0.00 0.00 39 1008.5
20260903071836 18 325 0.0 3.2 0.00 0.00 0.00 41 1008.7
20260903070347 18 349 0.0 0.0 0.00 0.00 0.00 42 1008.6
20260903064836 18 194 0.0 8.0 0.00 0.00 0.00 41 1008.2
20260903063351 17 92 0.0 0.0 0.00 0.00 0.00 44 1008.0
20260903061831 18 40 0.0 0.0 0.00 0.00 0.00 42 1007.9
20260903060330 18 215 0.0 0.0 0.00 0.00 0.00 43 1007.7
20260903054841 18 126 0.0 3.2 0.00 0.00 0.00 41 1007.7
20260903053350 20 119 0.0 0.0 0.00 0.00 0.00 39 1007.6
20260903051832 20 223 0.0 3.2 0.00 0.00 0.00 37 1007.6
20260903050410 20 199 0.0 1.6 0.00 0.00 0.00 37 1007.6
20260903044852 21 211 0.0 3.2 0.00 0.00 0.00 35 1007.7
20260903043334 21 206 0.0 3.2 0.00 0.00 0.00 35 1007.7
20260903041909 21 205 0.0 0.0 0.00 0.00 0.00 37 1007.8
20260903040338 21 192 0.0 0.0 0.00 0.00 0.00 36 1007.7
20260903034837 21 197 0.0 1.6 0.00 0.00 0.00 35 1007.9
20260903033327 21 248 0.0 3.2 0.00 0.00 0.00 35 1007.7
20260903031823 21 202 0.0 0.0 0.00 0.00 0.00 36 1007.7
20260903030337 21 195 0.0 0.0 0.00 0.00 0.00 35 1007.4
20260903024827 22 207 0.0 0.0 0.00 0.00 0.00 34 1007.2
20260903023330 23 209 0.0 3.2 0.00 0.00 0.00 31 1007.1
20260903020352 24 198 0.0 3.2 0.00 0.00 0.00 30 1006.7
20260903014914 25 213 0.0 3.2 0.00 0.00 0.00 30 1006.6
20260903013348 25 225 0.0 3.2 0.00 0.00 0.00 29 1006.5
20260903011833 25 94 0.0 0.0 0.00 0.00 0.00 29 1006.4
20260903010333 26 259 0.0 0.0 0.00 0.00 0.00 29 1006.4
20260903004832 27 236 0.0 0.0 0.00 0.00 0.00 30 1006.4
20260903003352 27 218 0.0 3.2 0.00 0.00 0.00 28 1006.2
20260903001848 28 279 0.0 3.2 0.00 0.00 0.00 27 1006.0
20260903000337 29 360 0.0 4.8 0.00 0.00 0.00 25 1006.1